| time (UTC) | temp F | wind direction | speed MPH | gust MPH | rain 1hr in | rain 24hr in | rain mn in | humidity % | barometer mb |
| 20260506123033 | 54 | 339 | 0.0 | 2.0 | 0.04 | 0.18 | 0.07 | 96 | 1006.9 |
| 20260506121519 | 54 | 339 | 0.0 | 3.0 | 0.02 | 0.15 | 0.04 | 96 | 1006.9 |
| 20260506120025 | 53 | 74 | 0.0 | 1.0 | 0.02 | 0.15 | 0.04 | 96 | 1006.8 |
| 20260506114520 | 53 | 74 | 0.0 | 0.0 | 0.01 | 0.16 | 0.03 | 95 | 1007.0 |
| 20260506113018 | 52 | 74 | 0.0 | 0.0 | 0.01 | 0.16 | 0.03 | 95 | 1007.2 |
| 20260506111516 | 52 | 74 | 0.0 | 1.0 | 0.01 | 0.15 | 0.02 | 95 | 1007.2 |
| 20260506110016 | 52 | 74 | 0.0 | 1.0 | 0.01 | 0.15 | 0.02 | 95 | 1007.0 |
| 20260506104523 | 52 | 74 | 0.0 | 0.0 | 0.01 | 0.15 | 0.02 | 95 | 1007.1 |
| 20260506103016 | 52 | 74 | 0.0 | 0.0 | 0.01 | 0.15 | 0.02 | 95 | 1007.2 |
| 20260506101512 | 52 | 74 | 0.0 | 0.0 | 0.00 | 0.14 | 0.01 | 95 | 1006.9 |
| 20260506100017 | 52 | 19 | 0.0 | 0.0 | 0.01 | 0.14 | 0.01 | 94 | 1006.8 |
| 20260506094611 | 52 | 292 | 0.0 | 1.0 | 0.01 | 0.14 | 0.01 | 94 | 1006.8 |
| 20260506093010 | 52 | 291 | 0.0 | 1.0 | 0.01 | 0.14 | 0.01 | 94 | 1006.8 |
| 20260506091508 | 52 | 291 | 0.0 | 2.0 | 0.01 | 0.14 | 0.01 | 94 | 1006.8 |
| 20260506090006 | 52 | 291 | 0.0 | 0.0 | 0.00 | 0.13 | 0.00 | 94 | 1007.0 |
| 20260506084507 | 52 | 291 | 0.0 | 0.0 | 0.00 | 0.13 | 0.00 | 94 | 1007.4 |
| 20260506083006 | 52 | 291 | 0.0 | 1.0 | 0.00 | 0.13 | 0.00 | 94 | 1007.5 |
| 20260506081507 | 52 | 291 | 0.0 | 1.0 | 0.00 | 0.13 | 0.00 | 94 | 1007.5 |
| 20260506073001 | 52 | 291 | 0.0 | 1.0 | 0.00 | 0.13 | 0.00 | 94 | 1007.2 |
| 20260506071600 | 52 | 291 | 0.0 | 0.0 | 0.00 | 0.13 | 0.00 | 93 | 1007.2 |
| 20260506061553 | 52 | 291 | 0.0 | 1.0 | 0.00 | 0.13 | 0.00 | 93 | 1007.9 |
| 20260506044550 | 53 | 291 | 0.0 | 1.0 | 0.00 | 0.13 | 0.00 | 91 | 1009.0 |
| 20260506043043 | 53 | 291 | 0.0 | 2.0 | 0.00 | 0.13 | 0.00 | 90 | 1009.0 |
| 20260506041542 | 53 | 291 | 0.0 | 2.0 | 0.00 | 0.13 | 0.00 | 88 | 1009.1 |
| 20260506040037 | 54 | 291 | 1.0 | 2.0 | 0.00 | 0.13 | 0.00 | 87 | 1009.3 |
| 20260506034538 | 55 | 291 | 0.0 | 2.0 | 0.00 | 0.13 | 0.13 | 86 | 1009.3 |
| 20260506033033 | 56 | 290 | 0.0 | 2.0 | 0.00 | 0.13 | 0.13 | 85 | 1009.8 |
| 20260506031542 | 56 | 292 | 1.0 | 4.0 | 0.00 | 0.13 | 0.13 | 84 | 1009.5 |
| 20260506030031 | 56 | 251 | 1.0 | 5.0 | 0.00 | 0.13 | 0.13 | 84 | 1009.6 |
| 20260506024532 | 57 | 269 | 2.0 | 6.0 | 0.00 | 0.13 | 0.13 | 87 | 1009.5 |
| 20260506023027 | 58 | 161 | 0.0 | 3.0 | 0.00 | 0.13 | 0.13 | 91 | 1009.4 |
| 20260506021524 | 58 | 248 | 0.0 | 6.0 | 0.00 | 0.13 | 0.13 | 91 | 1009.1 |
| 20260506020024 | 58 | 255 | 0.0 | 2.0 | 0.00 | 0.13 | 0.13 | 92 | 1008.9 |
| 20260506014523 | 58 | 196 | 1.0 | 3.0 | 0.00 | 0.13 | 0.13 | 94 | 1008.6 |
| 20260506013023 | 58 | 196 | 0.0 | 2.0 | 0.00 | 0.13 | 0.13 | 95 | 1008.5 |
| 20260506011520 | 58 | 196 | 0.0 | 2.0 | 0.00 | 0.13 | 0.13 | 94 | 1008.1 |
| 20260506010044 | 58 | 200 | 0.0 | 2.0 | 0.00 | 0.13 | 0.13 | 94 | 1007.9 |
| 20260506004522 | 59 | 200 | 0.0 | 2.0 | 0.00 | 0.13 | 0.13 | 94 | 1007.7 |
| 20260506003022 | 59 | 200 | 0.0 | 2.0 | 0.00 | 0.13 | 0.13 | 94 | 1007.4 |
| 20260506001518 | 59 | 200 | 0.0 | 1.0 | 0.00 | 0.13 | 0.13 | 93 | 1007.3 |
| 20260506000018 | 60 | 200 | 0.0 | 2.0 | 0.00 | 0.13 | 0.13 | 93 | 1007.2 |
| 20260505234517 | 60 | 200 | 0.0 | 2.0 | 0.00 | 0.13 | 0.13 | 93 | 1007.3 |
| 20260505233016 | 61 | 200 | 0.0 | 1.0 | 0.00 | 0.13 | 0.13 | 92 | 1007.2 |
| 20260505231515 | 62 | 200 | 0.0 | 1.0 | 0.00 | 0.13 | 0.13 | 92 | 1007.1 |
| 20260505230023 | 62 | 200 | 0.0 | 2.0 | 0.00 | 0.13 | 0.13 | 92 | 1006.9 |
| 20260505224514 | 62 | 200 | 0.0 | 2.0 | 0.00 | 0.13 | 0.13 | 91 | 1007.0 |
| 20260505223013 | 62 | 200 | 0.0 | 2.0 | 0.00 | 0.13 | 0.13 | 91 | 1006.9 |
| 20260505221513 | 63 | 200 | 0.0 | 3.0 | 0.00 | 0.13 | 0.13 | 89 | 1006.9 |
| 20260505220012 | 63 | 200 | 1.0 | 2.0 | 0.00 | 0.13 | 0.13 | 87 | 1006.9 |
| 20260505214512 | 65 | 200 | 0.0 | 1.0 | 0.00 | 0.13 | 0.13 | 84 | 1006.5 |
| 20260505213020 | 65 | 200 | 1.0 | 2.0 | 0.00 | 0.13 | 0.13 | 84 | 1006.3 |
| 20260505211510 | 66 | 200 | 0.0 | 2.0 | 0.00 | 0.13 | 0.13 | 87 | 1006.2 |
| 20260505210010 | 65 | 200 | 1.0 | 3.0 | 0.00 | 0.13 | 0.13 | 90 | 1006.2 |
| 20260505204508 | 62 | 261 | 0.0 | 2.0 | 0.11 | 0.13 | 0.13 | 88 | 1006.4 |
| 20260505203007 | 62 | 265 | 1.0 | 3.0 | 0.11 | 0.13 | 0.13 | 86 | 1006.7 |
| 20260505201506 | 63 | 242 | 1.0 | 3.0 | 0.11 | 0.13 | 0.13 | 85 | 1006.7 |
| 20260505200006 | 64 | 76 | 1.0 | 11.0 | 0.11 | 0.13 | 0.13 | 81 | 1006.7 |
| 20260505194504 | 72 | 325 | 10.0 | 24.0 | 0.00 | 0.02 | 0.02 | 54 | 1006.8 |
| 20260505193003 | 75 | 177 | 3.0 | 11.0 | 0.00 | 0.02 | 0.02 | 43 | 1004.8 |
| 20260505191503 | 77 | 194 | 4.0 | 16.0 | 0.00 | 0.02 | 0.02 | 41 | 1004.8 |
| 20260505190105 | 77 | 180 | 7.0 | 15.0 | 0.00 | 0.02 | 0.02 | 39 | 1004.6 |
| 20260505184603 | 76 | 267 | 5.0 | 16.0 | 0.00 | 0.02 | 0.02 | 43 | 1005.0 |
| 20260505183129 | 78 | 150 | 7.0 | 18.0 | 0.00 | 0.02 | 0.02 | 42 | 1005.2 |
| 20260505181553 | 77 | 162 | 4.0 | 10.0 | 0.00 | 0.02 | 0.02 | 46 | 1005.6 |
| 20260505180052 | 75 | 192 | 5.0 | 16.0 | 0.00 | 0.02 | 0.02 | 47 | 1006.0 |
| 20260505174552 | 75 | 196 | 6.0 | 16.0 | 0.00 | 0.02 | 0.02 | 48 | 1006.1 |
| 20260505173054 | 74 | 198 | 2.0 | 6.0 | 0.00 | 0.02 | 0.02 | 50 | 1006.3 |
| 20260505171558 | 74 | 112 | 3.0 | 12.0 | 0.00 | 0.02 | 0.02 | 50 | 1006.3 |
| 20260505170049 | 75 | 229 | 4.0 | 14.0 | 0.00 | 0.02 | 0.02 | 48 | 1006.0 |
| 20260505164548 | 76 | 126 | 4.0 | 14.0 | 0.00 | 0.02 | 0.02 | 48 | 1005.9 |
| 20260505163046 | 75 | 138 | 4.0 | 11.0 | 0.00 | 0.02 | 0.02 | 48 | 1006.2 |
| 20260505161551 | 75 | 149 | 5.0 | 12.0 | 0.00 | 0.02 | 0.02 | 49 | 1006.5 |
| 20260505153040 | 75 | 236 | 7.0 | 17.0 | 0.00 | 0.02 | 0.02 | 48 | 1006.7 |
| 20260505151537 | 74 | 236 | 4.0 | 14.0 | 0.00 | 0.02 | 0.02 | 49 | 1006.6 |
| 20260505124509 | 62 | 209 | 0.0 | 5.0 | 0.00 | 0.02 | 0.02 | 71 | 1008.1 |